Regional Weather Roundup
Issued by NWS

Home | Current Version | Previous Version | Text Only | Print | Product List | Glossary On
Versions: 1 2 3 4 5 6 7 8 9 10 11 12 13 14 15 16 17 18 19 20 21 22 23 24 25 26 27 28 29 30 31 32 33 34 35 36 37 38 39 40 41 42 43 44 45 46 47 48 49 50
000
ASUS44 KOUN 240610
RWROK

WEATHER ROUNDUP FOR OKLAHOMA
NATIONAL WEATHER SERVICE NORMAN OK
100 AM CDT WED MAY 24 2017

NOTE: "FAIR" INDICATES FEW OR NO CLOUDS BELOW 12,000 FEET WITH NO
      SIGNIFICANT WEATHER AND/OR OBSTRUCTIONS TO VISIBILITY.

OKZ001>007-009>012-014-015-017-240700-
NORTHWEST OKLAHOMA AND THE PANHANDLE

CITY           SKY/WX    TMP DP  RH WIND       PRES   REMARKS
GAGE           CLEAR     48  42  80 NW7       29.96F
6HR MIN TEMP:  48; 6HR MAX TEMP:  65;

GUYMON         CLEAR     50  41  71 NW8       30.02F
ENID/WOODRING  CLEAR     52  45  76 NW6       29.89F
$$

OKZ016-021>023-033>039-044-045-240700-
SOUTHWEST OKLAHOMA

CITY           SKY/WX    TMP DP  RH WIND       PRES   REMARKS
LAWTON/REGL    PTCLDY    52  48  86 NW3       29.91F
6HR MIN TEMP:  52; 6HR MAX TEMP:  70;

LAWTON/FT SILL PTCLDY    56  47  69 N6        29.90F
FREDERICK      CLEAR     56  46  69 NW9       29.90F
CLINTON        CLEAR     52  44  74 NW9       29.95F
HOBART         CLEAR     49  45  86 NW8       29.94F
ALTUS AFB      CLEAR     56  43  63 NW8       29.94S
$$

OKZ018>020-024>031-240700-
CENTRAL OKLAHOMA

CITY           SKY/WX    TMP DP  RH WIND       PRES   REMARKS
OKLAHOMA CITY  PTCLDY    52  46  80 NW5       29.89F
6HR MIN TEMP:  52; 6HR MAX TEMP:  67;

OKC/WILEY POST CLOUDY    56  48  74 NW8       29.90S
OKC/TINKER AFB MOCLDY    54  46  73 NW7       29.88F
STILLWATER     CLEAR     50  44  80 W5        29.88S
GUTHRIE        MOCLDY    54  47  77 NW5       29.89F
$$

OKZ008-013-054>072-240700-
NORTHEAST OKLAHOMA

CITY           SKY/WX    TMP DP  RH WIND       PRES   REMARKS
TULSA          PTCLDY    55  48  77 NW8       29.83S
6HR MIN TEMP:  55; 6HR MAX TEMP:  71;

TULSA/JONES    MOCLDY    57  45  64 NW3       29.85S
PONCA CITY     PTCLDY    51  44  77 CALM      29.87F
BARTLESVILLE   PTCLDY    53  45  74 CALM      29.85F
MUSKOGEE       CLEAR     56  46  69 NW8       29.83F
$$

OKZ032-040>043-046>053-073>077-240700-
SOUTH CENTRAL/SOUTHEAST OKLAHOMA

CITY           SKY/WX    TMP DP  RH WIND       PRES   REMARKS
ARDMORE/DWNTWN CLEAR     54  46  76 CALM      29.88F
MCALESTER      MOCLDY    59  49  69 NW3       29.85S
$$




USA.gov is the U.S. government's official web portal to all federal, state and local government web resources and services.